Regional Weather Roundup
Issued by NWS Little Rock, AR

Home | Current Version | Previous Version | Graphics & Text | Print | Product List | Glossary On
Versions: 1 2 3 4 5 6 7 8 9 10 11 12 13 14 15 16 17 18 19 20 21 22 23 24 25 26 27 28 29 30 31 32 33 34 35 36 37 38 39 40 41 42 43 44 45 46 47 48 49 50
000
ASUS44 KLZK 250605
RWRLZK

WEATHER ROUNDUP FOR ARKANSAS
NATIONAL WEATHER SERVICE LITTLE ROCK AR
100 AM CDT MON SEP 25 2017

NOTE: "FAIR" INDICATES FEW OR NO CLOUDS BELOW 12,000 FEET WITH NO
SIGNIFICANT WEATHER AND/OR OBSTRUCTIONS TO VISIBILITY.

ARZ001-003-010-029-250700-
NORTHWEST ARKANSAS

CITY           SKY/WX    TMP DP  RH WIND       PRES   REMARKS
FAYETTEVILLE   CLEAR     64  64 100 CALM      29.98S
6HR MIN TEMP:  64; 6HR MAX TEMP:  81;

FORT SMITH     CLEAR     72  68  87 E5        29.94S
6HR MIN TEMP:  72; 6HR MAX TEMP:  82;

HARRISON       CLEAR     67  65  93 SE5       30.00S
6HR MIN TEMP:  66; 6HR MAX TEMP:  77;

BENTONVILLE    CLEAR     70  64  81 SE6       30.00S
6HR MIN TEMP:  70; 6HR MAX TEMP:  83;

ROGERS         CLEAR     71  66  84 SE7       30.00S
6HR MIN TEMP:  71; 6HR MAX TEMP:  82; 6HR PCP: TRACE;

SILOAM SPGS    CLEAR     70  63  78 E6        29.98S
6HR MIN TEMP:  69; 6HR MAX TEMP:  80;

HIGHFILL       CLEAR     71  64  78 SE5       29.98S
6HR MIN TEMP:  68; 6HR MAX TEMP:  82;

$$

ARZ004-005-016-250700-
NORTH CENTRAL ARKANSAS

CITY           SKY/WX    TMP DP  RH WIND       PRES   REMARKS
FLIPPIN        CLEAR     67  64  90 CALM      29.98S
6HR MIN TEMP:  67; 6HR MAX TEMP:  82;

MTN HOME       CLEAR     68  66  93 CALM      29.97S
6HR MIN TEMP:  68; 6HR MAX TEMP:  81;

$$

ARZ040-041-250700-
WEST CENTRAL ARKANSAS

CITY           SKY/WX    TMP DP  RH WIND       PRES   REMARKS
MENA           CLEAR     64  64 100 CALM      29.98S
MOUNT IDA      PTCLDY    66  64  93 CALM      29.94S FOG
6HR MIN TEMP:  66; 6HR MAX TEMP:  72; 6HR PCP: TRACE;

$$

ARZ009-017-025-026-028-250700-
NORTHEAST ARKANSAS

CITY           SKY/WX    TMP DP  RH WIND       PRES   REMARKS
JONESBORO      CLEAR     68  68 100 NE5       29.96F
6HR MIN TEMP:  68; 6HR MAX TEMP:  81;

NEWPORT        PTCLDY    68  66  93 NW5       29.97S
6HR MIN TEMP:  68; 6HR MAX TEMP:  76;

BLYTHEVILLE    CLEAR     70  68  93 E6        29.97F
6HR MIN TEMP:  70; 6HR MAX TEMP:  78;

$$

ARZ022-023-033-042-044-250700-
CENTRAL ARKANSAS

CITY           SKY/WX    TMP DP  RH WIND       PRES   REMARKS
LITTLE ROCK    CLEAR     71  69  93 CALM      29.95F
6HR MIN TEMP:  71; 6HR MAX TEMP:  84;

JACKSONVILLE   CLEAR     69  67  93 CALM      29.95F
6HR MIN TEMP:  69; 6HR MAX TEMP:  85;

CONWAY           N/A     68  66  94 CALM      29.94S
SEARCY         CLEAR     69  69 100 CALM      29.98S
6HR MIN TEMP:  69; 6HR MAX TEMP:  83;

HOT SPRINGS    CLEAR     70  69  97 CALM      29.95F
6HR MIN TEMP:  69; 6HR MAX TEMP:  76;

RUSSELLVILLE   CLEAR     67  66  97 CALM      29.95S
6HR MIN TEMP:  67; 6HR MAX TEMP:  79;

CLINTON        FAIR      66  66 100 CALM      29.98S FOG
$$

ARZ036-250700-
EAST ARKANSAS

CITY           SKY/WX    TMP DP  RH WIND       PRES   REMARKS
WEST MEMPHIS   CLEAR     70  68  93 CALM      29.95F
6HR MIN TEMP:  69; 6HR MAX TEMP:  74;

$$

ARZ050-053-066-070-073-250700-
SOUTHWEST ARKANSAS

CITY           SKY/WX    TMP DP  RH WIND       PRES   REMARKS
ARKADELPHIA    FAIR      67  66  97 CALM      29.94S
6HR MIN TEMP:  66; 6HR MAX TEMP:  78;

CAMDEN         PTCLDY    68  66  94 CALM      29.93S FOG
TEXARKANA      CLEAR     70  67  90 SE3       29.92F
6HR MIN TEMP:  70; 6HR MAX TEMP:  81;

EL DORADO      CLEAR     68  68 100 CALM      29.94S
6HR MIN TEMP:  68; 6HR MAX TEMP:  79;

DE QUEEN       CLEAR     69  68  96 NE3       29.91F
6HR MIN TEMP:  69; 6HR MAX TEMP:  81;

$$

ARZ056-057-069-250700-
SOUTHEAST ARKANSAS

CITY           SKY/WX    TMP DP  RH WIND       PRES   REMARKS
PINE BLUFF     CLEAR     71  66  84 CALM      29.95S
6HR MIN TEMP:  69; 6HR MAX TEMP:  82;

STUTTGART      CLEAR     71  66  84 CALM      29.96S
6HR MIN TEMP:  70; 6HR MAX TEMP:  84;

MONTICELLO     CLEAR     70  67  90 CALM      29.95S
6HR MIN TEMP:  70; 6HR MAX TEMP:  84;


$$





USA.gov is the U.S. government's official web portal to all federal, state and local government web resources and services.